Location: Fort Wayne
(41.1310°N, 85.1290°W)
Time: 05:28:29
(UTC-04:00)

Gbstr 26 Del rocket - Visible Passes

Search period start: 15 September 2014 00:00
Search period end: 25 September 2014 00:00
Orbit: 494 x 1278 km, 51.8° (Epoch: 14 September)

Date Brightness Start Highest point End Pass type
(mag) Time Alt. Az. Time Alt. Az. Time Alt. Az.
15 Sep 5.4 03:28:31 32° NNE 03:28:31 32° NNE 03:32:20 10° NE visible
15 Sep 5.4 05:11:13 19° NW 05:14:40 32° N 05:21:03 10° ENE visible
16 Sep 5.5 03:26:16 30° NNE 03:26:16 30° NNE 03:30:01 10° NE visible
16 Sep 5.4 05:08:58 19° NW 05:12:34 32° N 05:18:57 10° ENE visible
17 Sep 5.6 03:24:01 28° NNE 03:24:01 28° NNE 03:27:43 10° NE visible
17 Sep 5.4 05:06:43 18° NW 05:10:28 33° N 05:16:53 10° ENE visible
17 Sep 5.0 06:52:26 10° NW 06:59:01 57° NNE 07:06:45 10° ESE visible
18 Sep 5.7 03:21:48 27° NNE 03:21:48 27° NNE 03:25:26 10° NE visible
18 Sep 5.4 05:04:31 18° NW 05:08:20 34° N 05:14:50 10° ENE visible
18 Sep 4.8 06:50:06 10° NW 06:56:45 65° NNE 07:04:35 10° ESE visible
19 Sep 5.7 03:19:38 25° NNE 03:19:38 25° NNE 03:23:12 10° NE visible
19 Sep 5.3 05:02:20 19° NW 05:06:12 36° NNE 05:12:48 10° E visible
19 Sep 4.6 06:47:46 10° NW 06:54:27 75° NNE 07:02:21 10° ESE visible
20 Sep 5.8 03:17:31 24° NNE 03:17:31 24° NNE 03:20:59 10° NE visible
20 Sep 5.2 05:00:13 20° NW 05:04:02 38° NNE 05:10:46 10° E visible
20 Sep 4.4 06:45:26 10° NW 06:52:08 86° NE 07:00:02 10° SE visible
21 Sep 5.9 03:15:28 23° NE 03:15:28 23° NE 03:18:49 10° ENE visible
21 Sep 5.1 04:58:11 22° NW 05:01:50 42° NNE 05:08:43 10° E visible
21 Sep 4.3 06:43:07 10° NW 06:49:46 81° SW 06:57:39 10° SE visible
22 Sep 5.9 03:13:31 23° NE 03:13:31 23° NE 03:16:42 10° ENE visible
22 Sep 4.9 04:56:14 25° NW 04:59:37 46° NNE 05:06:39 10° E visible
22 Sep 4.3 06:40:48 10° WNW 06:47:24 68° SW 06:55:10 10° SE visible
23 Sep 6.0 03:11:41 22° NE 03:11:41 22° NE 03:14:36 10° ENE visible
23 Sep 4.7 04:54:25 30° NNW 04:57:22 52° NNE 05:04:32 10° ESE visible
23 Sep 4.4 06:38:32 10° WNW 06:45:00 57° SW 06:52:35 10° SSE visible
24 Sep 6.1 03:10:00 20° NE 03:10:00 20° NE 03:12:33 10° ENE visible
24 Sep 4.5 04:52:44 38° NNW 04:55:05 60° NNE 05:02:22 10° ESE visible
24 Sep 4.6 06:36:18 10° WNW 06:42:34 46° SW 06:49:53 10° SSE visible
